CST,Max TemperatureF,Mean TemperatureF,Min TemperatureF,Max Dew PointF,MeanDew PointF,Min DewpointF,Max Humidity, Mean Humidity, Min Humidity, Max Sea Level PressureIn, Mean Sea Level PressureIn, Min Sea Level PressureIn, Max VisibilityMiles, Mean VisibilityMiles, Min VisibilityMiles, Max Wind SpeedMPH, Mean Wind SpeedMPH, Max Gust SpeedMPH,PrecipitationIn, CloudCover, Events, WindDirDegrees
2013-12-1,45,35,25,36,30,25,100,91,71,30.11,30.04,29.97,10,5,0,9,3,13,0.00,3,Fog,314
2013-12-2,41,33,24,34,29,25,100,90,60,29.99,29.90,29.79,10,5,0,14,7,18,0.05,8,Fog-Rain,96
2013-12-3,48,41,33,47,41,33,100,99,93,29.80,29.76,29.71,4,3,2,14,8,20,T,8,Rain,139
2013-12-4,56,49,42,55,49,43,100,99,93,29.78,29.68,29.56,9,3,0,24,9,31,0.02,8,Fog-Rain,155
2013-12-5,46,34,22,41,24,13,93,79,65,30.25,29.99,29.70,10,10,10,24,14,31,0.00,4,,261
2013-12-6,23,19,15,18,14,8,86,75,71,30.52,30.36,30.24,10,10,10,13,8,17,T,7,,318
2013-12-7,19,14,9,12,9,7,92,80,63,30.69,30.63,30.54,10,7,2,12,5,16,T,5,Snow,309
2013-12-8,25,18,10,25,19,9,100,88,69,30.59,30.16,29.94,10,5,1,18,10,23,0.03,7,Snow,111
2013-12-9,25,15,4,23,12,-3,92,80,67,30.27,30.13,29.96,10,8,2,23,15,30,T,5,Snow,257
2013-12-10,22,10,-3,11,3,-6,87,70,60,30.33,30.18,30.05,10,10,10,29,12,36,0.00,3,,245
2013-12-11,20,10,-1,15,9,-7,95,79,60,30.60,30.39,30.27,10,5,1,17,10,23,T,6,Snow,283
2013-12-12,20,7,-7,10,1,-10,91,77,59,30.57,30.42,30.27,10,10,10,20,10,34,0.00,1,,227
2013-12-13,26,18,9,25,18,8,100,86,71,30.25,30.17,30.11,10,6,1,12,6,13,0.15,3,Snow,117
2013-12-14,26,24,22,25,23,21,100,97,86,30.12,29.98,29.86,10,4,1,18,10,22,0.17,8,Snow,52
2013-12-15,24,15,6,21,10,3,96,87,77,30.15,30.02,29.92,10,9,4,21,14,26,T,7,Snow,260
2013-12-16,18,13,7,17,13,5,100,92,78,30.19,30.08,30.02,10,5,0,13,4,17,0.03,8,Fog-Snow,199
2013-12-17,27,21,14,24,19,14,100,94,75,30.11,30.03,29.95,10,6,0,21,13,26,T,6,Fog-Snow,244
2013-12-18,35,23,10,28,15,9,92,77,61,30.22,30.07,29.89,10,10,10,23,12,30,0.00,1,,216
2013-12-19,38,34,29,35,32,29,100,94,79,29.97,29.90,29.81,10,7,0,21,6,27,0.01,4,Fog-Rain,163
2013-12-20,38,36,33,37,35,33,100,100,100,29.81,29.76,29.71,4,1,0,9,4,12,0.15,8,Fog-Rain,289
2013-12-21,35,34,32,36,33,32,100,100,96,29.85,29.76,29.58,10,3,0,17,5,23,0.44,8,Fog-Rain,31
2013-12-22,34,30,26,33,31,22,100,97,84,30.12,29.80,29.56,10,6,1,17,9,21,0.04,8,Snow,273
2013-12-23,26,13,0,23,12,-5,92,83,65,30.48,30.34,30.13,10,9,4,23,14,26,T,6,Snow,259
2013-12-24,17,8,-1,11,3,-5,88,80,71,30.60,30.53,30.44,10,10,10,16,9,20,T,1,,212
2013-12-25,27,22,17,27,20,11,100,88,71,30.41,30.22,30.09,10,7,1,18,12,25,0.01,8,Snow,213
2013-12-26,33,23,13,27,19,10,92,81,71,30.34,30.22,30.09,10,10,7,23,11,27,0.00,6,,236
2013-12-27,41,32,23,31,29,25,100,82,67,30.33,30.24,30.14,10,10,6,20,10,26,0.00,2,,211
2013-12-28,48,40,32,35,32,29,89,76,58,30.14,30.05,29.90,10,10,10,20,11,24,0.00,0,,205
2013-12-29,36,27,17,33,24,12,100,88,76,30.16,29.95,29.79,10,6,2,21,11,32,T,6,Rain-Snow,316
2013-12-30,17,11,5,11,8,3,92,84,74,30.34,30.23,30.15,10,6,1,14,7,19,T,6,Snow,261
2013-12-31,15,9,3,13,8,0,95,88,73,30.39,30.28,30.15,10,5,1,15,8,21,0.01,6,Snow,249